TimeCDT,TemperatureF,Dew PointF,Humidity,Sea Level PressureIn,VisibilityMPH,Wind Direction,Wind SpeedMPH,Gust SpeedMPH,PrecipitationIn,Events,Conditions,WindDirDegrees,DateUTC
12:55 AM,64.4,59.0,83,30.10,10.0,Calm,Calm,-,N/A,,Clear,0,2013-05-27 05:55:00
1:55 AM,64.4,60.8,88,30.09,10.0,Calm,Calm,-,N/A,,Clear,0,2013-05-27 06:55:00
2:55 AM,62.6,59.0,88,30.08,10.0,Calm,Calm,-,N/A,,Clear,0,2013-05-27 07:55:00
3:15 AM,62.6,59.0,88,30.08,10.0,Calm,Calm,-,N/A,,Clear,0,2013-05-27 08:15:00
3:35 AM,64.4,59.0,83,30.08,10.0,Calm,Calm,-,N/A,,Clear,0,2013-05-27 08:35:00
3:55 AM,62.6,60.8,94,30.08,10.0,Calm,Calm,-,N/A,,Clear,0,2013-05-27 08:55:00
4:15 AM,62.6,60.8,94,30.08,10.0,Calm,Calm,-,N/A,,Clear,0,2013-05-27 09:15:00
4:35 AM,62.6,60.8,94,30.08,10.0,Calm,Calm,-,N/A,,Clear,0,2013-05-27 09:35:00
4:55 AM,62.6,59.0,88,30.08,10.0,Calm,Calm,-,N/A,,Partly Cloudy,0,2013-05-27 09:55:00
5:15 AM,62.6,60.8,94,30.09,10.0,Calm,Calm,-,N/A,,Scattered Clouds,0,2013-05-27 10:15:00
5:35 AM,62.6,60.8,94,30.09,10.0,ESE,4.6,-,N/A,,Clear,120,2013-05-27 10:35:00
5:55 AM,62.6,60.8,94,30.10,10.0,East,3.5,-,N/A,,Scattered Clouds,100,2013-05-27 10:55:00
6:55 AM,66.2,60.8,83,30.10,10.0,ESE,3.5,-,N/A,,Scattered Clouds,120,2013-05-27 11:55:00
7:55 AM,69.8,62.6,78,30.10,10.0,SE,3.5,-,N/A,,Scattered Clouds,130,2013-05-27 12:55:00
8:55 AM,73.4,64.4,73,30.09,10.0,SSE,5.8,-,N/A,,Partly Cloudy,160,2013-05-27 13:55:00
9:55 AM,78.8,68.0,69,30.06,10.0,South,9.2,-,N/A,,Mostly Cloudy,170,2013-05-27 14:55:00
10:55 AM,80.6,71.6,74,30.07,10.0,Variable,6.9,-,N/A,,Mostly Cloudy,0,2013-05-27 15:55:00
11:55 AM,82.4,71.6,70,30.06,10.0,SSW,9.2,-,N/A,,Mostly Cloudy,210,2013-05-27 16:55:00
12:55 PM,84.2,69.8,62,30.05,10.0,SSE,10.4,-,N/A,,Partly Cloudy,160,2013-05-27 17:55:00
1:55 PM,86.0,68.0,55,30.04,10.0,South,11.5,-,N/A,,Partly Cloudy,170,2013-05-27 18:55:00
2:55 PM,86.0,66.2,51,30.02,10.0,South,9.2,-,N/A,,Mostly Cloudy,180,2013-05-27 19:55:00
3:55 PM,84.2,64.4,51,30.00,10.0,South,10.4,-,N/A,,Mostly Cloudy,170,2013-05-27 20:55:00
4:55 PM,84.2,62.6,48,29.99,10.0,South,11.5,-,N/A,,Mostly Cloudy,180,2013-05-27 21:55:00
5:55 PM,82.4,60.8,48,29.98,10.0,SSE,12.7,-,N/A,,Mostly Cloudy,160,2013-05-27 22:55:00
6:55 PM,82.4,62.6,51,29.98,10.0,SSE,6.9,-,N/A,,Mostly Cloudy,150,2013-05-27 23:55:00
7:55 PM,80.6,64.4,58,29.98,10.0,SSE,6.9,-,N/A,,Mostly Cloudy,150,2013-05-28 00:55:00
8:55 PM,78.8,64.4,61,29.97,10.0,SE,4.6,-,N/A,,Mostly Cloudy,140,2013-05-28 01:55:00
9:55 PM,77.0,64.4,65,29.98,10.0,SSE,6.9,-,N/A,,Mostly Cloudy,150,2013-05-28 02:55:00
10:55 PM,77.0,62.6,61,29.97,10.0,SSE,8.1,-,N/A,,Mostly Cloudy,150,2013-05-28 03:55:00
11:55 PM,75.2,62.6,65,29.98,10.0,SSE,5.8,-,N/A,,Scattered Clouds,160,2013-05-28 04:55:00